Home   Weather   Lakewood   Past weeks

Flag for USA Past Weather in Lakewood, New Jersey, USA — Yesterday and Last 2 Weeks

Now
37 °F

Clear.


Feels Like: 37 °F
Forecast: 35 / 50 °F
Wind: No wind

Location: Lakehurst Naval Air Station

Current Time: Dec 4, 2016 at 11:39:06 pm

Latest Report: Dec 4, 2016 at 11:00 pm


Visibility: 10 mi

Pressure: 30.12 "Hg

Humidity: 79%

Dew Point: 31 °F

Location of LakewoodLocation

Past Weather in Lakewood — Graph

°F

Lakewood Temperature Yesterday

Maximum temperature yesterday: 50 °F (at 1:00 pm)
Minimum temperature yesterday: 40 °F (at 6:00 am)
Average temperature yesterday: 45 °F

High & Low Weather Summary for the Past Weeks

 TemperatureHumidityPressure
High64 °F (Dec 1, 3:00 am)100% (Nov 20, 12:00 am)30.30 "Hg (Nov 20, 12:00 am)
Low22 °F (Nov 28, 6:00 am)34% (Nov 23, 2:00 pm)29.46 "Hg (Dec 1, 3:00 am)
Average44 °F69%29.99 "Hg
* Reported Nov 19 10:00 pm — Dec 4 10:00 pm, Lakewood, Weather by CustomWeather, © 2016

Note: Actual official high and low records may vary slightly from our data, if they occured in-between our weather recording intervals... More about our weather records

Advertising

Lakewood Weather History for the Previous 24 Hours

Scroll right to see more
 ConditionsComfort  
Time TempWeatherWind HumidityBarometerVisibility
10:00 pm
Sun, Dec 4
36 °FClear.No wind82%30.14 "Hg10 mi
9:00 pm36 °FClear.No wind75%30.15 "Hg10 mi
8:00 pm34 °FClear.No wind85%30.17 "Hg10 mi
7:00 pm34 °FClear.No wind79%30.18 "Hg10 mi
6:00 pm37 °FClear.No wind73%30.18 "Hg10 mi
5:00 pm40 °FClear.No wind60%30.18 "Hg10 mi
4:00 pm44 °FSunny.No wind47%30.18 "Hg10 mi
3:00 pm47 °FSunny.6 mph41%30.18 "Hg10 mi
2:00 pm47 °FSunny.N/A42%30.17 "Hg10 mi
1:00 pm47 °FSunny.9 mph42%30.19 "Hg10 mi
12:00 pm47 °FSunny.9 mph42%30.19 "Hg10 mi
11:00 am45 °FSunny.14 mph45%30.21 "Hg10 mi
10:00 am44 °FSunny.12 mph47%30.22 "Hg10 mi
9:00 am42 °FSunny.6 mph53%30.23 "Hg10 mi
8:00 am39 °FPartly sunny.3 mph62%30.23 "Hg10 mi
7:00 am34 °FOvercast.No wind76%30.22 "Hg10 mi
6:00 am34 °FPassing clouds.3 mph73%30.20 "Hg10 mi
5:00 am37 °FOvercast.No wind67%30.20 "Hg10 mi
4:00 am36 °FClear.3 mph67%30.21 "Hg10 mi
3:00 am40 °FPassing clouds.5 mph58%30.19 "Hg10 mi
2:00 am43 °FOvercast.7 mph51%30.19 "Hg10 mi
1:00 am43 °FOvercast.5 mph56%30.18 "Hg10 mi
12:00 am44 °FOvercast.5 mph49%30.17 "Hg10 mi
11:00 pm
Sat, Dec 3
45 °FOvercast.6 mph45%30.16 "Hg10 mi
Weather by CustomWeather, © 2016

See weather overviewHow to use our weather pages